This is the latest recevied weather packets stored in our database for station/object N3LF. If no packets are shown the sender has not sent any weather packets the latest 10 day(s).
| Time | Temp. | Humidity | Pressure | Rain* | Wind** | Luminosity | Snow |
|---|---|---|---|---|---|---|---|
| 1787862893 | 32.78° C | 59% | 1016.7 hPa | 0 mm | - | 476 W/m² | - |
| 1787862592 | 32.78° C | 59% | 1016.8 hPa | 0 mm | - | 487 W/m² | - |
| 1787862288 | 32.22° C | 62% | 1017 hPa | 0 mm | - | 496 W/m² | - |
| 1787861988 | 32.78° C | 62% | 1016.9 hPa | 0 mm | - | 497 W/m² | - |
| 1787861683 | 31.67° C | 62% | 1016.9 hPa | 0 mm | - | 514 W/m² | - |
| 1787861381 | 32.22° C | 63% | 1017 hPa | 0 mm | - | 526 W/m² | - |
| 1787861076 | 31.11° C | 63% | 1017.1 hPa | 0 mm | - | 539 W/m² | - |
| 1787860775 | 31.67° C | 62% | 1017.1 hPa | 0 mm | - | 558 W/m² | - |
| 1787860470 | 31.11° C | 63% | 1017.1 hPa | 0 mm | - | 559 W/m² | - |
| 1787860170 | 31.67° C | 60% | 1017.2 hPa | 0 mm | - | 574 W/m² | - |
| 1787859867 | 31.11° C | 64% | 1017.3 hPa | 0 mm | - | 590 W/m² | - |
| 1787859561 | 30.56° C | 68% | 1017.3 hPa | 0 mm | - | 594 W/m² | - |
| 1787859261 | 30° C | 68% | 1017.4 hPa | 0 mm | - | 631 W/m² | - |
| 1787858957 | 31.11° C | 68% | 1017.4 hPa | 0 mm | - | 507 W/m² | - |
| 1787858653 | 30.56° C | 68% | 1017.5 hPa | 0 mm | - | 652 W/m² | - |
| 1787858348 | 31.11° C | 67% | 1017.5 hPa | 0 mm | - | 650 W/m² | - |
| 1787858043 | 30.56° C | 68% | 1017.5 hPa | 0 mm | - | 682 W/m² | - |
| 1787857738 | 30.56° C | 68% | 1017.4 hPa | 0 mm | - | 661 W/m² | - |
| 1787857435 | 31.11° C | 66% | 1017.7 hPa | 0 mm | - | 595 W/m² | - |
| 1787857132 | 32.22° C | 65% | 1017.6 hPa | 0 mm | - | 676 W/m² | - |
| 1787856828 | 31.11° C | 68% | 1017.7 hPa | 0 mm | - | 662 W/m² | - |
| 1787856527 | 31.67° C | 66% | 1017.7 hPa | 0 mm | - | 669 W/m² | - |
| 1787856223 | 31.11° C | 68% | 1017.8 hPa | 0 mm | - | 682 W/m² | - |
| 1787855924 | 30.56° C | 70% | 1017.8 hPa | 0 mm | - | 687 W/m² | - |
| 1787855618 | 30.56° C | 68% | 1017.8 hPa | 0 mm | - | 688 W/m² | - |
* Rain latest hour (hover to see other rain measurements)
** Current wind speed in m/s (hover to see current wind gust speed)